Home > Weather > Mar del Plata > Past weeks

Flag for Argentina Weather for the Past 2 Weeks in Mar del Plata, Buenos Aires, Argentina

Now
73 °F

Passing clouds.


Feels Like: 73 °F
Forecast: 70 / 78 °F
Wind: 21 mph from East

Location: Mar Del Plata Aerodrome

Current Time: Feb 6, 2016 at 9:21:49 PM

Latest Report: Feb 6, 2016 at 7:00 PM


Visibility: N/A

Pressure: 30.04 "Hg

Humidity: 83%

Dew point: 68 °F

Location of Mar del PlataLocation

Historic Weather in Mar del Plata — Graph

°F

Mar del Plata Temperature Yesterday

Maximum temperature yesterday: 90 °F (at 4:00 PM)
Minimum temperature yesterday: 55 °F (at 11:00 PM)
Average temperature yesterday: 73 °F

High & Low Weather Summary for the Past Weeks

 TemperatureHumidityPressure
High90 °F (Feb 5, 4:00 PM)100% (Jan 30, 3:00 AM)30.30 "Hg (Jan 30, 3:00 AM)
Low45 °F (Jan 27, 5:00 AM)28% (Jan 27, 11:00 AM)29.42 "Hg (Jan 25, 2:00 AM)
Average68 °F78%29.95 "Hg
* Reported Jan 22 7:00 PM — Feb 6 7:00 PM, Mar del Plata, Weather by CustomWeather, © 2016

Note: Actual official high and low records may vary slightly from our data, if they occured in-between our weather recording intervals... More about our weather records

Advertising

Mar del Plata Weather History for the Previous 24 Hours

 ConditionsComfort  
Time TempWeatherWind HumidityBarometerVisibility
7:00 PM
Sat, Feb 6
73 °FPassing clouds.21 mph83%30.04 "HgN/A
6:00 PM75 °FPassing clouds.18 mph78%30.04 "HgN/A
5:00 PM75 °FPassing clouds.18 mph78%30.04 "HgN/A
4:00 PM77 °FPassing clouds.20 mph74%30.07 "HgN/A
2:00 PM77 °FPassing clouds.14 mph74%30.09 "HgN/A
1:00 PM77 °FPassing clouds.14 mph74%30.09 "HgN/A
12:00 PM77 °FScattered clouds.12 mph79%30.12 "HgN/A
11:00 AM73 °FBroken clouds.8 mph89%30.12 "HgN/A
10:00 AM73 °FBroken clouds.9 mph83%30.12 "HgN/A
9:00 AM72 °FScattered clouds.16 mph88%30.12 "Hg6 mi
8:00 AM70 °FScattered clouds.6 mph94%30.12 "Hg5 mi
7:00 AM66 °FScattered clouds.No wind100%30.12 "Hg4 mi
6:00 AM66 °FOvercast.No wind94%30.09 "Hg3 mi
5:00 AM66 °FMostly cloudy.No wind94%30.09 "Hg5 mi
4:00 AM66 °FClear.No wind94%30.07 "Hg10 mi
3:00 AM66 °FClear.5 mph94%30.09 "Hg10 mi
2:00 AM66 °FClear.3 mph94%30.09 "Hg10 mi
1:00 AM66 °FClear.5 mph94%30.09 "Hg10 mi
12:00 AM66 °FClear.No wind94%30.09 "Hg10 mi
11:00 PM
Fri, Feb 5
55 °FClear.9 mph72%30.30 "Hg10 mi
10:00 PM66 °FLight rain. Overcast.No wind94%30.09 "Hg5 mi
9:00 PM68 °FLight rain. Overcast.7 mph88%30.09 "Hg4 mi
Weather by CustomWeather, © 2016

See weather overviewHow to use our weather pages